Weather reports worldwide

Advertisment
Bierset/Liege, Belgium (6478): temperature & dewpoint: 20.10.2020 10:00:00 - 26.10.2020 10:00:00 (CET)Bierset/Liege, Belgium (6478): wind speed & gusts: 20.10.2020 10:00:00 - 26.10.2020 10:00:00 (CET)Bierset/Liege, Belgium (6478): wind direction: 20.10.2020 10:00:00 - 26.10.2020 10:00:00 (CET)Bierset/Liege, Belgium (6478): reduced air pressure: 20.10.2020 10:00:00 - 26.10.2020 10:00:00 (CET)Bierset/Liege, Belgium (6478): visibility: 20.10.2020 10:00:00 - 26.10.2020 10:00:00 (CET)
Date & Time tt [°C] td [°C] ff [km/h] ff [kn] fx [km/h] fx [kn] dd ppp [hPa] vv [km]
26.10.2020 10:00:00 8,8 5,8 28 15 - - SSW 1003,3 10
26.10.2020 09:00:00 8,5 6,2 22 12 36 19 SSW 1002,7 10
26.10.2020 08:00:00 8,6 6,5 21 11 40 21 SSW 1002,4 10
26.10.2020 07:00:00 8,4 7,0 16 9 - - SSW 1001,7 10
26.10.2020 06:00:00 8,7 7,2 21 11 29 16 S 1001,2 10
26.10.2020 05:00:00 8,8 7,4 16 9 32 18 SSW 1001,6 10
26.10.2020 04:00:00 9,3 7,8 16 9 - - SSW 1001,7 10
26.10.2020 03:00:00 9,4 7,8 16 9 29 16 SSW 1001,6 10
26.10.2020 02:00:00 9,7 8,4 13 7 29 16 SSW 1001,3 10
26.10.2020 01:00:00 9,9 8,5 15 8 - - SSW 1001,7 10
26.10.2020 00:00:00 10,2 8,9 16 9 25 14 SSW 1002,2 10
25.10.2020 23:00:00 10,4 9,0 15 8 29 16 S 1002,1 10
25.10.2020 22:00:00 10,0 8,7 16 9 - - S 1002,4 10
25.10.2020 21:00:00 10,3 8,7 22 12 29 16 S 1002,4 10
25.10.2020 20:00:00 10,3 8,8 16 9 36 19 S 1003,0 10
25.10.2020 19:00:00 10,6 8,9 16 9 - - SSW 1002,9 10
25.10.2020 18:00:00 10,7 9,0 16 9 32 18 SSW 1002,8 10
25.10.2020 17:00:00 11,0 9,2 18 10 29 16 S 1002,7 10
25.10.2020 16:00:00 11,2 9,7 21 11 - - S 1002,4 10
25.10.2020 15:00:00 11,3 9,8 18 10 25 14 S 1002,6 10
25.10.2020 14:00:00 11,3 9,9 16 9 32 18 S 1003,2 10
25.10.2020 13:00:00 11,6 9,9 21 11 - - S 1002,8 10
25.10.2020 12:00:00 11,5 10,6 18 10 40 21 SSW 1004,2 6
25.10.2020 11:00:00 11,7 10,4 28 15 40 21 SSW 1003,5 10
25.10.2020 10:00:00 11,6 10,1 22 12 - - S 1003,2 10
25.10.2020 09:00:00 11,5 10,3 24 13 43 23 SSW 1004,0 8
25.10.2020 08:00:00 12,4 9,2 24 13 47 25 SSW 1003,7 10
25.10.2020 07:00:00 13,0 8,7 28 15 - - S 1003,4 10
25.10.2020 06:00:00 13,3 9,0 31 17 47 25 S 1003,8 10
25.10.2020 05:00:00 13,0 9,7 29 16 50 27 S 1003,3 10
25.10.2020 04:00:00 13,4 10,0 31 17 - - S 1004,1 10
25.10.2020 03:00:00 14,0 10,0 34 18 58 31 S 1005,0 10
25.10.2020 02:00:00 13,8 10,0 31 17 50 27 S 1005,6 10
25.10.2020 01:00:00 - - - - - - - - -
25.10.2020 00:00:00 14,2 10,6 35 19 54 29 SSW 1007,1 10
24.10.2020 23:00:00 14,3 10,6 31 17 54 29 S 1007,5 10
24.10.2020 22:00:00 14,2 10,8 35 19 - - S 1007,7 10
24.10.2020 21:00:00 14,2 11,0 31 17 50 27 S 1008,4 10
24.10.2020 20:00:00 14,1 11,2 34 18 54 29 S 1009,0 10
24.10.2020 19:00:00 13,8 11,2 29 16 - - S 1009,8 10
24.10.2020 18:00:00 13,8 10,9 25 14 50 27 SSW 1010,4 30
24.10.2020 17:00:00 14,0 10,9 31 17 47 25 SSW 1010,7 10
24.10.2020 16:00:00 13,9 10,9 31 17 - - SSW 1011,2 10
24.10.2020 15:00:00 14,0 10,7 29 16 47 25 SSW 1011,7 10
24.10.2020 14:00:00 13,7 10,7 31 17 47 25 SSW 1012,3 10
24.10.2020 13:00:00 13,5 10,1 29 16 - - SSW 1012,9 10
24.10.2020 12:00:00 13,3 9,9 31 17 50 27 SSW 1013,2 10
24.10.2020 11:00:00 13,0 10,1 28 15 47 25 SSW 1013,6 10
24.10.2020 10:00:00 12,0 9,8 28 15 - - SSW 1013,6 10
24.10.2020 09:00:00 12,1 9,4 28 15 47 25 SSW 1013,3 10
24.10.2020 08:00:00 12,0 9,6 26 14 40 21 S 1013,1 10
24.10.2020 07:00:00 12,0 10,0 24 13 - - SSW 1013,2 10
24.10.2020 06:00:00 11,5 9,9 24 13 32 18 SSW 1013,5 10
24.10.2020 05:00:00 11,8 10,2 22 12 32 18 SSW 1013,7 10
24.10.2020 04:00:00 12,4 10,1 24 13 - - SW 1013,5 10
24.10.2020 03:00:00 12,3 10,7 21 11 29 16 SW 1013,8 10
24.10.2020 02:00:00 12,6 10,9 21 11 32 18 SSW 1013,4 10
24.10.2020 01:00:00 12,5 10,8 14 8 - - SSW 1013,4 30
24.10.2020 00:00:00 13,2 11,2 16 9 25 14 SW 1013,6 10
23.10.2020 23:00:00 13,2 11,1 16 9 32 18 SW 1013,6 10
23.10.2020 22:00:00 13,3 11,4 16 9 - - SSW 1012,8 10
23.10.2020 21:00:00 12,7 11,6 15 8 25 14 SSW 1012,5 10
23.10.2020 20:00:00 13,3 12,0 15 8 29 16 SSW 1012,0 10
23.10.2020 19:00:00 13,1 12,1 11 6 - - SSW 1011,9 10
23.10.2020 18:00:00 14,0 12,8 15 8 25 14 SSW 1011,4 10
23.10.2020 17:00:00 14,9 12,4 15 8 25 14 WSW 1011,1 10
23.10.2020 16:00:00 15,5 13,5 16 9 - - WSW 1010,6 10
23.10.2020 15:00:00 16,3 13,5 16 9 25 14 SW 1010,3 10
23.10.2020 14:00:00 15,3 13,8 15 8 29 16 SSW 1010,6 10
23.10.2020 13:00:00 15,0 13,9 13 7 - - SSW 1010,9 10
23.10.2020 12:00:00 14,4 13,8 16 9 25 14 SW 1011,3 10
23.10.2020 11:00:00 13,8 13,3 11 6 22 12 SSW 1011,4 10
23.10.2020 10:00:00 14,1 13,4 13 7 - - SSW 1011,5 10
23.10.2020 09:00:00 13,8 13,3 13 7 25 14 SSW 1011,4 8
23.10.2020 08:00:00 13,7 13,2 15 8 29 16 SSW 1011,4 8
23.10.2020 07:00:00 13,5 13,2 16 9 - - SW 1011,0 5
23.10.2020 06:00:00 13,9 13,1 9 5 29 16 S 1011,2 10
23.10.2020 05:00:00 14,0 13,1 11 6 29 16 S 1011,5 10
23.10.2020 04:00:00 14,2 13,1 14 8 - - SSW 1011,9 20
23.10.2020 03:00:00 14,0 13,2 13 7 29 16 S 1012,3 10
23.10.2020 02:00:00 14,0 13,1 11 6 25 14 S 1012,7 10
23.10.2020 01:00:00 14,2 13,3 11 6 - - S 1013,0 20
23.10.2020 00:00:00 14,4 13,8 9 5 18 10 SW 1013,0 7
22.10.2020 23:00:00 14,6 13,7 11 6 22 12 SSW 1013,0 10
22.10.2020 22:00:00 14,7 13,7 14 8 - - S 1013,1 20
22.10.2020 21:00:00 14,8 13,7 9 5 18 10 SSW 1012,9 10
22.10.2020 20:00:00 15,1 14,1 11 6 22 12 S 1012,7 10
22.10.2020 19:00:00 15,3 14,2 11 6 - - SSW 1012,6 10
22.10.2020 18:00:00 14,3 13,6 8 4 36 19 SSW 1012,2 10
22.10.2020 17:00:00 15,3 13,8 26 14 40 21 SSW 1011,5 10
22.10.2020 16:00:00 17,5 13,1 21 11 - - SW 1011,4 10
22.10.2020 15:00:00 16,9 14,0 16 9 40 21 SSW 1011,5 10
22.10.2020 14:00:00 17,4 12,7 26 14 40 21 SSW 1011,8 10
22.10.2020 13:00:00 17,7 12,6 24 13 - - SSW 1012,0 10
22.10.2020 12:00:00 17,3 12,9 26 14 40 21 SSW 1012,4 10
22.10.2020 11:00:00 15,9 12,7 18 10 29 16 S 1012,7 10
22.10.2020 10:00:00 15,5 12,8 16 9 - - SSW 1012,9 10
22.10.2020 09:00:00 14,9 12,5 24 13 40 21 SSW 1012,6 10
22.10.2020 08:00:00 14,5 12,9 21 11 36 19 SSW 1011,6 10
22.10.2020 07:00:00 14,4 12,9 18 10 - - SSW 1011,0 10
22.10.2020 06:00:00 14,7 12,7 21 11 29 16 SSW 1011,0 10
22.10.2020 05:00:00 14,6 12,2 18 10 29 16 S 1010,6 10
22.10.2020 04:00:00 14,3 12,2 16 9 - - S 1010,8 10
22.10.2020 03:00:00 14,3 11,9 13 7 29 16 S 1010,6 10
22.10.2020 02:00:00 14,4 11,5 18 10 29 16 SSW 1010,5 10
22.10.2020 01:00:00 15,0 11,4 18 10 - - SSW 1009,9 10
22.10.2020 00:00:00 15,7 11,6 18 10 32 18 SSW 1009,4 10
21.10.2020 23:00:00 16,2 11,9 24 13 40 21 SSW 1008,7 10
21.10.2020 22:00:00 16,3 12,5 28 15 - - SSW 1007,8 10
21.10.2020 21:00:00 16,7 12,2 24 13 36 19 SSW 1006,8 10
21.10.2020 20:00:00 17,5 11,9 24 13 50 27 SSW 1006,2 10
21.10.2020 19:00:00 17,4 12,1 29 16 - - SSW 1005,2 10
21.10.2020 18:00:00 18,2 11,6 36 19 58 31 SSW 1003,9 30
21.10.2020 17:00:00 19,0 11,6 42 23 72 39 SSW 1002,9 10
21.10.2020 16:00:00 19,8 11,2 50 27 - - SW 1002,0 10
21.10.2020 15:00:00 19,7 10,8 46 25 83 45 SSW 1001,4 10
21.10.2020 14:00:00 19,6 10,8 48 26 68 37 SSW 1001,0 10
21.10.2020 13:00:00 19,3 10,2 44 24 - - SSW 1001,0 10
21.10.2020 12:00:00 17,6 9,1 41 22 68 37 S 1001,7 10
21.10.2020 11:00:00 16,2 9,1 34 18 54 29 S 1002,0 10
21.10.2020 10:00:00 14,1 9,4 22 12 - - S 1003,0 10
21.10.2020 09:00:00 13,0 9,6 29 16 47 25 S 1003,9 10
21.10.2020 08:00:00 12,4 9,8 26 14 58 31 S 1003,7 10
21.10.2020 07:00:00 12,8 10,2 29 16 - - S 1003,7 10
21.10.2020 06:00:00 11,9 10,2 22 12 36 19 S 1004,1 10
21.10.2020 05:00:00 12,1 9,7 16 9 40 21 SSE 1004,0 10
21.10.2020 04:00:00 12,3 10,6 15 8 - - S 1005,3 10
21.10.2020 03:00:00 12,3 10,9 18 10 40 21 S 1005,8 10
21.10.2020 02:00:00 12,7 11,1 21 11 32 18 S 1006,5 10
21.10.2020 01:00:00 12,9 11,5 22 12 - - S 1006,8 10
21.10.2020 00:00:00 12,9 11,7 18 10 32 18 S 1007,6 10
20.10.2020 23:00:00 13,2 11,8 21 11 36 19 S 1008,2 10
20.10.2020 22:00:00 12,9 11,4 16 9 - - S 1008,5 10
20.10.2020 21:00:00 13,1 11,6 22 12 36 19 S 1008,6 10
20.10.2020 20:00:00 13,5 11,6 22 12 40 21 S 1009,1 10
20.10.2020 19:00:00 13,7 11,7 24 13 - - S 1009,2 10
20.10.2020 18:00:00 13,9 11,9 26 14 43 23 S 1009,0 10
20.10.2020 17:00:00 14,1 12,0 29 16 43 23 SSW 1009,3 10
20.10.2020 16:00:00 13,8 12,0 22 12 - - SSW 1009,9 10
20.10.2020 15:00:00 14,0 11,0 31 17 - - SSW - 10
20.10.2020 14:00:00 15,0 10,0 31 17 - - SSW - 10
20.10.2020 13:00:00 15,0 10,0 34 18 - - S - 10
20.10.2020 12:00:00 14,0 9,0 29 16 - - S - 10
20.10.2020 11:00:00 13,2 8,3 28 15 43 23 S 1010,0 10
20.10.2020 10:00:00 12,6 7,6 24 13 - - S 1010,1 10

tt = temperature
td = dewpoint
ff = wind speed
fx = gusts
dd = wind direction
ppp = reduced air pressure
vv = visibility

Next stations